TIME,DELAY(SENSOR),PRES,T(CTD),SAL,OXYGEN,RAWTEMP,T(OPTODE),TCPHASE,FLUOR,BETA(BETA700),BETA(BETA412),BETA(BETA440),CDOM,C(CSC),ED(ED411.90),ED(ED443.80),ED(ED489.40),ED(ED554.70),LU(LU412.20),LU(LU443.80),LU(LU489.40),LU(LU555.00),COMP,TILTX,TILTX(TILTY),CHECK
1347549384,5801,497.3699951171875000,17.6425991058349600,36.4952011108398440,235.9824066162109400,167.0919036865234400,17.6407699584960940,30.8455009460449220,50,100,97,79,65,13417,2146953892,2147514578,2147268726,2147465206,2147085732,2146958116,2147652059,2147120402,3171,-1,9,56696
1347549505,5804,485.5499877929687500,17.7194004058837900,36.5054016113281250,236.1728973388672000,164.7247924804687500,17.7122097015380860,30.8045291900634770,50,101,96,79,64,13412,2146951826,2147513837,2147266733,2147465307,2147086985,2146956004,2147655689,2147123949,3356,-1,8,20825
1347549627,5804,473.7200012207031000,17.7851009368896500,36.5181999206543000,235.9588012695312500,162.5205993652343800,17.7787399291992200,30.7851505279541000,50,101,97,80,64,13414,2146953526,2147515163,2147265106,2147463890,2147089261,2146954395,2147653494,2147124690,3486,-1,8,39549
1347549736,5806,463.1499938964844000,17.8418006896972660,36.5276985168457000,236.6614074707031200,160.5729980468750000,17.8375396728515620,30.7254009246826170,51,100,98,79,65,13412,2146952338,2147510985,2147266715,2147464969,2147083858,2146953920,2147652105,2147119716,3259,-1,8,1013
1347549846,5804,452.3299865722656000,17.8806991577148440,36.5336990356445300,236.5355987548828000,159.2754058837890600,17.8767108917236330,30.7139396667480470,50,101,97,79,63,13414,2146952438,2147513444,2147263021,2147464000,2147086784,2146957366,2147649764,2147118354,2770,-2,8,40108
1347549957,5804,441.3800048828125000,17.9279003143310550,36.5410003662109400,236.2032928466797000,157.7225036621093800,17.9235992431640620,30.7089500427246100,50,101,97,80,64,13414,2146952740,2147513344,2147263003,2147462637,2147087049,2146960475,2147649152,2147117257,2190,-2,8,43537
1347550077,5805,429.5299987792969000,17.9699993133544920,36.5477981567382800,235.9013061523437500,156.3300933837890600,17.9656505584716800,30.7049503326416000,50,101,97,79,65,13413,2146956571,2147513892,2147262829,2147460224,2147085833,2146955931,2147653019,2147117851,1965,-1,9,20313
1347550187,5804,418.6799926757812500,18.0195999145507800,36.5554008483886700,236.1954040527343800,154.6669006347656200,18.0158691406250000,30.6687698364257800,50,100,96,79,64,13411,2146953984,2147514834,2147264502,2147463021,2147086966,2146960155,2147648548,2147122998,2094,-1,8,8811
1347550299,5803,407.6600036621094000,18.0590991973876950,36.5601005554199200,235.8285980224609400,153.2761993408203000,18.0578708648681640,30.6675395965576170,51,101,97,79,65,13414,2146954203,2147513965,2147264466,2147462528,2147085860,2146956480,2147652406,2147123264,1959,-1,9,37549
1347550409,5803,397.0199890136719000,18.1093006134033200,36.5646018981933600,235.0240936279297000,151.7218017578125000,18.1048297882080080,30.6854496002197270,50,101,97,81,64,13411,2146954998,2147512420,2147262793,2147459300,2147090102,2146958061,2147651355,2147125357,2151,-1,9,37562
1347550529,5802,385.7600097656250000,18.1501007080078120,36.5689010620117200,234.5397033691406200,150.2602996826172000,18.1489791870117200,30.6894702911376950,50,102,97,80,65,13410,2146953051,2147514724,2147263195,2147458706,2147086820,2146955154,2147655414,2147123766,2145,-2,9,16472
1347550641,5803,375.6700134277344000,18.1865005493164060,36.5735015869140600,234.2552947998047000,149.1526031494140600,18.1824398040771500,30.6882400512695300,51,101,97,80,66,13409,2146951698,2147511460,2147265380,2147459712,2147087049,2146954020,2147654061,2147122706,2095,-1,9,41079
1347550772,5805,364.3699951171875000,18.2537994384765620,36.5798988342285160,233.3872985839843800,146.9806060791015600,18.2480697631835940,30.7014503479003900,51,104,97,80,65,13408,2146953408,2147512905,2147265545,2147461641,2147085083,2146956096,2147654381,2147123986,2057,-1,8,60465
1347550905,5804,353.3699951171875000,18.3031005859375000,36.5847015380859400,232.7891998291015600,145.2174072265625000,18.3013496398925780,30.7068901062011720,50,103,97,80,65,13411,2146955218,2147512886,2147262747,2147464758,2147087149,2146959341,2147652928,2147127990,2059,-1,9,56901
1347551036,5806,342.9500122070312500,18.3658008575439450,36.5894012451171900,231.6739959716797000,143.1264038085937500,18.3645401000976560,30.7333106994628900,50,103,96,79,63,13407,2146952923,2147516050,2147263158,2147459401,2147085732,2146960502,2147657234,2147130267,1601,-1,9,37217
1347551178,5804,331.7099914550781000,18.4577007293701170,36.5970001220703100,230.3267059326172000,139.9608001708984400,18.4602298736572270,30.7570800781250000,50,104,96,79,63,13406,2146952813,2147512393,2147261376,2147459812,2147088969,2146962002,2147655277,2147126756,1617,-1,9,54972
1347551310,5804,319.3900146484375000,18.5701007843017580,36.6068992614746100,228.4586944580078000,136.1600952148437500,18.5751495361328120,30.7988395690917970,50,102,99,82,64,13409,2146955154,2147513344,2147262893,2147456420,2147086445,2146959186,2147654363,2147127049,1489,-1,8,48711
1347551408,5805,309.0599975585937500,18.6699008941650400,36.6105003356933600,227.1770935058593800,133.0155029296875000,18.6702499389648440,30.8204002380371100,51,104,97,80,65,13408,2146954011,2147518153,2147263250,2147458038,2147081673,2146963291,2147658148,2147124864,1429,-1,8,32023
1347551517,5804,297.6099853515625000,18.7747993469238280,36.6157989501953100,226.2035980224609400,129.6775054931640600,18.7712306976318360,30.8246593475341800,50,101,97,80,66,13407,2146953910,2147514441,2147262482,2147457618,2147076745,2146959561,2147657417,2147127204,1366,-1,8,14002
1347551634,5807,286.8099975585937500,18.8493995666503900,36.6180000305175800,225.7541046142578000,127.2315979003906200,18.8452491760253900,30.8146800994873050,51,103,97,80,66,13411,2146949814,2147512987,2147261394,2147456182,2147087314,2146959113,2147667245,2147126509,881,-2,9,7114
1347551776,5806,276.1099853515625000,18.9346008300781250,36.6186981201171900,227.7615051269531200,124.3991012573242200,18.9309692382812500,30.6768798828125000,50,103,97,80,65,13408,2146954797,2147515035,2147265417,2147457590,2147081481,2146967241,2147672932,2147125110,931,-1,9,64730
1347551939,5804,263.4899902343750000,19.0799999237060550,36.5985984802246100,233.8710937500000000,119.5690002441406200,19.0772094726562500,30.3147392272949220,50,101,97,79,64,13410,2146953874,2147512621,2147262912,2147452982,2147083547,2146973001,2147685714,2147125851,1514,-1,8,46561
1347552060,5802,252.8000030517578000,19.1396999359130860,36.5802993774414060,241.9477996826172000,117.5152969360351600,19.1394100189209000,29.9080009460449220,50,102,98,79,65,13409,2146951972,2147516507,2147265984,2147455332,2147087890,2146976073,2147697042,2147125760,1403,-1,8,47177
1347552182,5805,242.2799987792968800,19.2063007354736330,36.5802001953125000,245.2308959960937500,115.3807983398437500,19.2040691375732420,29.7298603057861330,50,100,97,80,64,13410,2146952877,2147510445,2147262153,2147454628,2147077522,2146985499,2147709412,2147126692,1310,-1,9,22128
1347552313,5805,231.2799987792968800,19.2649002075195300,36.5770988464355500,247.0155944824218800,113.4072036743164000,19.2638607025146500,29.6237792968750000,50,101,96,79,64,13408,2146954468,2147512073,2147266806,2147451373,2147081819,2146993755,2147731611,2147129179,1262,-2,9,30777
1347552444,5802,220.3000030517578000,19.3281002044677730,36.5775985717773440,247.7919006347656200,111.4284973144531200,19.3238201141357420,29.5633907318115230,51,101,97,81,62,13408,2146951771,2147515053,2147263378,2147453458,2147081627,2147014445,2147756754,2147128768,1155,-1,9,8969
1347552578,5801,208.9799957275390600,19.3966007232666000,36.5788993835449200,248.8231964111328000,108.9087982177734400,19.4001903533935550,29.4848098754882800,52,104,97,80,63,13406,2146953874,2147513846,2147267904,2147452507,2147084425,2147032128,2147800146,2147132525,502,-1,9,26256
1347552698,5803,198.4400024414062500,19.4440994262695300,36.5788993835449200,249.4662933349609400,107.5177001953125000,19.4423694610595700,29.4383296966552730,54,102,97,79,63,13405,2146954148,2147514742,2147270573,2147454390,2147087908,2147065078,2147853065,2147137755,345,-2,9,65253
1347552752,5804,193.6100006103515600,19.4694995880126950,36.5805015563964840,249.7068939208984400,106.7530975341796900,19.4655494689941400,29.4178504943847660,56,103,97,80,62,13401,2146951030,2147518089,2147269549,2147455140,2147088886,2147078957,2147884608,2147138898,3489,-1,9,53920
1347552827,5805,187.0500030517578000,19.5258007049560550,36.5833015441894500,250.3166046142578000,104.9236984252929700,19.5210208892822270,29.3674602508544920,58,103,97,80,64,13398,2146950473,2147516955,2147273325,2147453458,2147099062,2147101860,2147919552,2147142244,407,-1,9,43114
1347552881,5806,182.5599975585937500,19.5620994567871100,36.5889015197753900,250.1253967285156200,103.7764968872070300,19.5558109283447270,29.3610000610351560,58,102,98,81,64,13398,2146950427,2147519021,2147276571,2147454939,2147104356,2147133202,2147980443,2147143652,445,-1,8,13104
1347552935,5805,178.0299987792968800,19.6133995056152340,36.5929985046386700,250.5245971679687500,102.0727996826171900,19.6074905395507800,29.3215103149414060,59,103,97,80,65,13399,2146952512,2147520640,2147279232,2147449856,2147111040,2147157851,2148028114,2147146505,472,-1,8,14731
1347552989,5805,173.5099945068359400,19.6539993286132800,36.5890998840332000,252.7994995117187500,100.3976974487304700,19.6583099365234380,29.2003097534179700,60,105,98,79,65,13395,2146953472,2147518400,2147281014,2147451346,2147103012,2147191451,2148070994,2147149110,185,-1,8,53731
1347553043,5806,169.0500030517578000,19.6958007812500000,36.5909996032714840,254.9207000732422000,99.3209075927734400,19.6909809112548830,29.0946598052978500,60,106,98,81,64,13397,2146954724,2147518939,2147282176,2147452288,2147123565,2147215241,2148104813,2147152612,495,-1,8,64543
1347553097,5806,164.6100006103515600,19.7723999023437500,36.5961990356445300,255.8834991455078000,96.2960281372070300,19.7827796936035160,29.0146808624267580,61,104,99,81,65,13394,2146953883,2147522742,2147283776,2147452507,2147123346,2147264649,2148198025,2147155474,710,-1,9,33279
1347553174,5806,158.8699951171875000,19.9598999023437500,36.6321983337402340,250.5988006591797000,90.9748306274414000,19.9443492889404300,29.1758403778076170,58,102,96,80,65,13396,2146956534,2147515401,2147268022,2147451099,2147095213,2147044013,2147767049,2147134189,822,-1,9,59867
1347553228,5807,155.3099975585937500,19.9929008483886720,36.6385993957519500,246.7304992675781200,89.6937637329101600,19.9832592010498050,29.3307495117187500,58,103,97,79,64,13400,2146956187,2147528384,2147292022,2147451986,2147162093,2147404480,2148394514,2147168704,996,-1,9,56653
1347553293,5801,151.1699981689453000,20.0268001556396500,36.6444015502929700,245.1936035156250000,88.4339065551757800,20.0215396881103500,29.3833904266357420,57,106,96,80,64,13399,2146958473,2147527963,2147297572,2147452507,2147181741,2147475849,2148492306,2147178953,972,-1,9,37012
1347553358,5806,147.1600036621093800,19.9920005798339840,36.6146011352539060,248.6499938964843800,89.3013534545898400,19.9951801300048830,29.2402305603027340,59,105,99,80,64,13393,2146957348,2147532635,2147304100,2147447396,2147198518,2147559058,2148610523,2147185069,908,-1,9,45001
1347553423,5805,143.2899932861328000,20.1511001586914060,36.6296005249023440,250.3032989501953000,84.4294967651367200,20.1432209014892580,29.1051502227783200,63,104,98,80,65,13395,2146954633,2147533942,2147307428,2147452096,2147234011,2147657078,2148743040,2147197577,1007,-2,9,62249
1347553501,5809,139.4900054931640600,20.2346000671386720,36.6305999755859400,250.4665985107422000,81.8214187622070300,20.2225093841552730,29.0646400451660160,65,104,98,80,64,13391,2146957357,2147537910,2147315419,2147452059,2147270052,2147759552,2148877622,2147205485,861,-1,9,33229
1347553610,5809,136.0000000000000000,20.3372001647949220,36.6351013183593750,252.7079010009765600,79.9299011230468800,20.2800292968750000,28.9429607391357420,67,106,97,80,63,13386,2146964854,2147539995,2147319332,2147452864,2147301485,2147868982,2149024640,2147216731,972,-1,9,28182
1347553763,5804,132.3500061035156200,20.4825992584228500,36.6712989807128900,250.0603027343750000,74.3134613037109400,20.4508991241455080,28.9870395660400400,72,112,99,83,64,13380,2146963364,2147549878,2147325650,2147449590,2147354157,2148008027,2149201883,2147227373,1386,-1,9,3080
1347553904,5808,127.7300033569336000,20.5226993560791000,36.6651000976562500,245.2713928222656200,71.7370529174804700,20.5293197631835940,29.1661300659179700,74,110,99,83,63,13379,2146963035,2147560064,2147337280,2147450029,2147451748,2148273270,2149534464,2147250468,1716,-1,9,62218
1347554002,5805,123.8799972534179700,20.6723003387451170,36.6721000671386700,244.8679046630859400,67.3438568115234400,20.6630992889404300,29.1281509399414060,79,109,98,81,64,13373,2146968530,2147565037,2147351433,2147451026,2147542500,2148476059,2149777590,2147270802,2038,-1,9,5532
1347554111,5807,119.9199981689453100,20.7502994537353500,36.6665000915527340,245.2534942626953000,64.8331375122070300,20.7395896911621100,29.0788707733154300,84,109,98,80,64,13372,2146973184,2147578989,2147364315,2147450468,2147662281,2148743277,2150105115,2147295597,1765,-1,9,12650
1347554211,5804,115.5599975585937500,20.8612003326416000,36.6691017150878900,245.2050018310547000,61.0364303588867200,20.8553199768066400,29.0329799652099600,95,115,100,83,64,13357,2146986560,2147589750,2147393554,2147452598,2147836086,2149094080,2150528274,2147332800,1176,-1,9,21644
1347554287,5805,111.8199996948242200,21.0165004730224600,36.6769981384277340,243.7969055175781200,56.1913299560546900,21.0030803680419920,29.0342807769775400,116,121,100,83,63,13343,2146991881,2147605997,2147411309,2147451510,2148021933,2149444809,2150966043,2147370285,1230,-1,9,19670
1347554385,5805,108.0000000000000000,21.1313991546630860,36.6778984069824200,243.1231994628906200,51.9452705383300800,21.1326599121093750,29.0108108520507800,128,124,101,83,63,13315,2147004150,2147624192,2147450230,2147453284,2148247396,2149828361,2151426020,2147412525,463,-1,9,63402
1347554496,5805,104.0699996948242200,21.3034000396728500,36.6800003051757800,243.2622985839843800,46.7189788818359400,21.2922592163085940,28.9383907318115230,153,129,101,83,64,13297,2146984941,2147577664,2147373613,2147450578,2147825444,2148628278,2149768877,2147294646,1220,-2,9,7242
1347554616,5806,100.1800003051757800,21.4563999176025400,36.6819000244140600,243.1161041259765600,41.6223983764648440,21.4480209350585940,28.8803291320800780,162,131,103,83,63,13288,2147025801,2147651675,2147485723,2147455753,2148797293,2150535149,2152262976,2147516662,1161,-2,9,19004
1347554670,5805,98.4899978637695300,21.4972991943359380,36.6778984069824200,243.3376007080078000,40.1774787902832000,21.4922103881835940,28.8521995544433600,173,133,100,83,63,13279,2147041837,2147673563,2147546130,2147458166,2149050825,2151007314,2152859126,2147569581,728,-2,9,8181
1347554726,5807,96.8000030517578100,21.5310993194580080,36.6794013977050800,243.4759063720703000,39.0643806457519500,21.5262508392334000,28.8320808410644530,169,145,101,84,63,13277,2147051812,2147695798,2147569481,2147457472,2149276781,2151353636,2153269906,2147617115,295,-1,9,62902
1347554803,5806,94.1100006103515600,21.7348003387451170,36.6757011413574200,242.9723052978515600,32.9799003601074200,21.7124404907226560,28.7778892517089840,168,138,102,84,62,13261,2147074486,2147721636,2147593380,2147459236,2149789248,2152158262,2154180982,2147710345,3172,-2,9,15045
1347554858,5804,91.9100036621093800,21.9358997344970700,36.6885986328125000,242.1697998046875000,26.3329792022705080,21.9160499572753900,28.7300796508789060,169,133,101,85,64,13254,2147095405,2147755995,2147622235,2147460845,2150336649,2153027245,2155143899,2147814034,2388,-1,9,17956
1347554913,5802,90.0000000000000000,22.1937999725341800,36.7009010314941400,240.1768035888672000,18.4201202392578120,22.1587295532226560,28.7204608917236330,167,134,101,84,63,13209,2147120950,2147795346,2147673883,2147462710,2150964790,2154020800,2156259072,2147928640,2136,-1,9,31463
1347554980,5805,88.1100006103515600,22.2507991790771500,36.7033996582031250,238.8811950683593800,16.3252201080322270,22.2230300903320300,28.7529506683349600,164,131,101,84,64,13250,2147149476,2147835593,2147718208,2147465728,2151518683,2154841289,2157027757,2148015424,2499,-1,9,16250
1347555046,5806,86.3600006103515600,22.2574005126953120,36.6766014099121100,239.3726959228515600,15.4723501205444340,22.2492198944091800,28.7197704315185550,166,131,102,81,63,13253,2147181321,2147877238,2147780288,2147467154,2152207286,2155867776,2158085888,2148135424,2821,-2,9,59913
1347555124,5805,83.9899978637695300,22.4055004119873050,36.6761016845703100,240.9497985839843800,10.2302198410034180,22.4102592468261720,28.5828800201416000,162,132,101,84,62,13233,2147243629,2147961910,2147888905,2147473801,2153489810,2157720804,2159906880,2148342619,3145,-1,9,42306
1347555179,5808,81.8099975585937500,22.5543994903564450,36.6666984558105500,240.4593963623047000,5.7519612312316895,22.5479507446289060,28.5487499237060550,177,137,102,84,63,13209,2147298989,2148038985,2147997787,2147484918,2154579949,2159222016,2161341860,2148516114,3516,-2,9,36771
1347555234,5808,79.9800033569336000,22.6165008544921880,36.6647987365722660,241.0034027099609400,3.7656340599060060,22.6090507507324220,28.4996490478515620,162,136,101,84,63,13208,2147131008,2147769865,2147603858,2147457627,2150766930,2152579894,2153485659,2147714880,3595,-1,9,49653
1347555301,5806,78.3099975585937500,22.7686004638671880,36.6739997863769500,239.5276031494140600,-1.0096369981765747,22.7560501098632800,28.5062103271484380,166,134,102,82,63,13200,2147391881,2148160621,2148106349,2147492288,2156496813,2161801938,2163598445,2148780589,3230,-1,9,57095
1347555424,5805,75.9000015258789000,22.8409004211425780,36.5777015686035160,250.6707000732422000,-4.1605978012084960,22.8531208038330080,27.9774494171142580,87,125,102,84,61,13260,2147127341,2147741266,2147498249,2147452297,2150679360,2151905462,2152109586,2147596059,2352,-1,9,61159
1347555479,5808,73.9800033569336000,23.0506000518798830,36.5811996459960940,256.5588989257812500,-10.6353197097778320,23.0527706146240230,27.6495704650878900,86,125,102,86,60,13272,2147618633,2148449837,2148315072,2147499949,2161146843,2168115382,2168765120,2149370925,1806,-1,9,62433
1347555534,5806,71.9000015258789000,23.1865005493164060,36.6155014038085940,258.4802856445312500,-13.1575403213500980,23.1306095123291000,27.5393295288085940,88,125,103,85,60,13267,2147754020,2148632246,2148527350,2147512722,2163755273,2171544448,2171546038,2149688393,1453,-1,9,36066
1347555589,5804,69.8600006103515600,23.2856006622314450,36.6113014221191400,259.1420898437500000,-17.6592102050781250,23.2696304321289060,27.4570198059082030,83,129,103,85,61,13264,2147738432,2148564553,2148372032,2147500809,2163978185,2171265691,2170476196,2149611392,1624,-2,9,30047
1347555644,5802,68.1399993896484400,23.3841991424560550,36.5768013000488300,261.3544921875000000,-20.8213806152343750,23.3673591613769530,27.3281898498535160,87,129,102,85,58,13252,2147998866,2148936429,2148818258,2147534363,2168891026,2178244077,2176928722,2150308507,1335,-2,9,3710
1347555735,5803,66.0299987792968800,23.5351009368896500,36.5504989624023440,262.6059875488281000,-25.5990104675292970,23.5151405334472660,27.2195796966552730,80,129,102,86,59,13258,2148246381,2149239021,2149214226,2147584082,2172788699,2183085741,2180324041,2150679744,592,-1,9,1201
1347555801,5807,64.3600006103515600,23.5974998474121100,36.4810981750488300,262.3262939453125000,-28.5042991638183600,23.6050701141357420,27.1955299377441400,79,126,103,85,62,13260,2148403483,2149405531,2149319954,2147588516,2176295442,2187282998,2183167890,2151013238,367,-1,8,4847
1347556066,5806,61.9500007629394500,23.9932994842529300,36.4747009277343750,260.3425903320312500,-41.2620582580566400,24.0006504058837900,27.1207199096679700,74,131,105,86,59,13262,2148609206,2149586194,2149217947,2147553069,2182181056,2194578221,2188354889,2151518427,2506,-2,9,47177
1347556121,5805,59.9099998474121100,24.2122993469238280,36.4511985778808600,260.7025146484375000,-47.1797294616699200,24.1844997406005860,27.0345993041992200,75,127,102,86,59,13254,2148838866,2149843328,2149422738,2147566875,2186613385,2199706541,2191997001,2151963565,2189,-1,9,51552
1347556187,5804,58.3600006103515600,24.2775001525878900,36.4420013427734400,260.3116149902344000,-49.5600395202636700,24.2585296630859380,27.0215301513671880,77,136,105,86,60,13263,2148985892,2150015853,2149572461,2147577682,2189992996,2203725376,2195075712,2152350043,1993,-2,9,31350
1347556453,5804,56.5699996948242200,24.7882995605468750,36.3824005126953100,258.6239013671875000,-65.8415985107421900,24.7659206390380860,26.8931407928466800,74,128,101,87,57,13239,2149434514,2150498121,2149987949,2147602048,2199279552,2214145042,2202295670,2153187273,1637,-2,9,10372
1347556773,5806,52.2900009155273440,25.0711994171142580,36.3745002746582000,257.4325866699219000,-75.2722473144531200,25.0606994628906250,26.8277206420898440,69,130,103,87,61,13248,2150306486,2151411730,2151022034,2147791853,2215365376,2231331008,2213748205,2154609088,672,-2,10,39297
1347556808,5807,51.5800018310546900,25.2147006988525400,36.3642997741699200,256.1011047363281000,-78.8281097412109400,25.1720199584960940,26.8391304016113280,69,130,104,87,57,13247,2150404068,2151481170,2151006656,2147784045,2218155117,2234248868,2215535625,2154876306,476,-1,9,34887
1347556972,5808,49.7700004577636700,25.4508991241455080,36.3488006591796900,254.2644958496093800,-87.9656906127929700,25.4585399627685550,26.8042297363281250,67,132,101,86,56,13244,2150891035,2151984054,2151459849,2147849307,2227697408,2244174756,2222296822,2155766957,890,-1,9,52914
1347557041,5804,47.7700004577636700,25.6578998565673830,36.3213996887207000,253.8338928222656200,-94.1671981811523400,25.6533699035644530,26.7473106384277340,65,130,103,87,55,13253,2151309092,2152349714,2151622043,2147855899,2237521600,2254973869,2229408502,2156772781,389,-1,9,44323
1347557302,5803,45.6699981689453100,25.9650001525878900,36.2943992614746100,253.0758972167968800,-104.4032974243164000,25.9756393432617200,26.6551799774169920,65,130,103,86,58,13244,2151780224,2152680731,2151423012,2147716214,2248782262,2265847524,2235496822,2157630610,2482,-1,9,50751
1347557383,5808,43.9199981689453100,26.4181995391845700,36.2686996459960940,252.5522003173828000,-114.2926025390625000,26.2878093719482420,26.5578193664550780,64,138,104,86,59,13239,2152292050,2153200960,2151865334,2147754587,2259802788,2276418505,2242956708,2158869705,1896,-1,9,65150
1347557654,5806,41.8800010681152340,27.4750003814697270,36.2187995910644500,242.4673004150390600,-148.4609985351562500,27.3729991912841800,26.5697708129882800,62,134,104,87,57,13248,2152818889,2153612379,2152151149,2147822628,2270195949,2286503771,2247886290,2159476736,3407,-3,10,58612
1347558272,5805,39.7000007629394500,27.5580997467041000,36.2211990356445300,234.6367034912109400,-154.7700958251953000,27.5745506286621100,26.8348808288574220,58,125,101,84,54,13271,2153644516,2154296987,2152468534,2147821065,2288388946,2304674404,2259564553,2161197522,3049,-2,9,23695
1347558330,5804,37.9000015258789060,27.5629997253417970,36.2206993103027340,234.5193023681640600,-154.9974975585937500,27.5818195343017580,26.8374290466308600,58,126,101,86,56,13275,2154336475,2154906139,2152887497,2147874477,2300831817,2316227675,2266152393,2161963885,3202,-1,10,55176
1347558399,5804,35.8600006103515600,27.5652999877929700,36.2210998535156250,234.4898986816406200,-155.1475982666015600,27.5866203308105470,26.8369503021240230,58,122,101,85,60,13279,2155136768,2155585325,2153297142,2147911890,2320114779,2334446427,2276573065,2163848813,3068,-2,9,37376